[[{"header":{"parameterUnit":"m.s-1","parameterCategory":1,"la1":30.2991,"la2":30.254,"lo1":-89.0895,"lo2":-89.0444,"dy":0.0017,"dx":0.0017,"nx":28,"ny":28,"refTime":"2024-05-20T03:00:00:Z","depth":0,"parameterNumber":2,"parameterNumberName":"U-component_of_WINDS"},"data":[0,0,0,0,0,0,0,0,0,0,0,0,0,0,0,0,0,0,0,0,0,0,0,0,0,0,0,0,0,0,0,0,0,0,0,0,0,0,0,0,0,0,0,0,0,0,0,0,0,0,0,0,0,0,0,0,0,0,-2.2815,-2.2816,0,-2.2867,-2.2868,-2.2868,-2.2837,-2.2836,-2.2834,-2.2833,-2.2886,-2.2889,-2.2892,0,0,0,0,0,0,0,0,0,0,0,0,0,-2.269,-2.2693,-2.2815,-2.2816,-2.2816,-2.2867,-2.2868,-2.2868,-2.2838,-2.2836,-2.2834,-2.2832,-2.2886,-2.2889,-2.2892,0,0,0,0,0,0,0,0,0,0,0,0,0,-2.2744,-2.2694,-2.2815,-2.2807,-2.2807,-2.2867,-2.2868,-2.2869,-2.2838,-2.2836,-2.2834,-2.2832,-2.2884,-2.2889,-2.2893,-2.2963,0,0,-2.2906,-2.2907,0,0,0,0,0,0,0,0,-2.2741,-2.2748,-2.2808,-2.2808,-2.2808,-2.2843,-2.2843,-2.29,-2.2839,-2.2826,-2.2833,-2.283,-2.2874,-2.2879,-2.2894,-2.2966,-2.2968,-2.2906,-2.2908,-2.291,-2.2911,0,0,0,0,0,0,0,-2.2737,-2.2746,-2.2836,-2.2809,-2.2809,-2.2801,-2.2807,-2.2854,-2.2862,-2.2827,-2.2825,-2.2832,-2.2874,-2.289,-2.2895,-2.2969,-2.2906,-2.291,-2.2912,-2.2914,-2.3101,-2.3104,0,0,0,0,0,0,-2.2734,-2.2743,-2.2834,-2.2837,-2.2768,-2.2805,-2.2811,-2.2834,-2.2861,-2.2863,-2.2833,-2.283,-2.2883,-2.289,-2.2896,-2.298,-2.291,-2.2914,-2.2917,-2.3099,-2.3102,-2.3105,0,0,0,0,0,0,-2.2731,-2.2742,-2.2832,-2.279,-2.28,-2.281,-2.2836,-2.2836,-2.2852,-2.2866,-2.2867,-2.2848,-2.2882,-2.289,-2.2947,-2.2982,-2.2916,-2.292,-2.3096,-2.31,-2.3103,-2.3149,0,0,0,0,0,0,-2.2728,-2.2742,-2.2768,-2.279,-2.2803,-2.2881,-2.2838,-2.2839,-2.286,-2.2856,-2.288,-2.2882,-2.2881,-2.2941,-2.2951,-2.2986,-2.2923,-2.3093,-2.3098,-2.3102,-2.3145,-2.3154,-2.3162,0,0,0,0,0,-2.2724,-2.2779,-2.277,-2.2781,-2.2836,-2.2884,-2.2891,-2.2888,-2.2863,-2.289,-2.2899,-2.2881,-2.2977,-2.2947,-2.2958,-2.2995,-2.3091,-2.3096,-2.3102,-2.3141,-2.3152,-2.3162,0,0,0,0,0,0,-2.2761,-2.2782,-2.2772,-2.2836,-2.2858,-2.2878,-2.2912,-2.29,-2.293,-2.2925,-2.292,-2.2926,-2.2985,-2.2996,-2.2962,-2.3065,-2.303,-2.3038,-2.3056,-2.3067,-2.3075,-2.3071,-2.2927,0,0,0,0,0,-2.2777,-2.2813,-2.2829,-2.2885,-2.2896,-2.2903,-2.2923,-2.2919,-2.2942,-2.2951,-2.2964,-2.2987,-2.3022,-2.3045,-2.3078,-2.3147,-2.3151,-2.3178,-2.3187,-2.3194,-2.3201,-2.3238,-2.325,-2.3123,-2.3123,-2.3123,0,0,-2.2809,-2.2825,-2.2849,-2.2893,-2.2909,-2.2947,-2.2911,-2.2952,-2.298,-2.2957,-2.3011,-2.3022,-2.3047,-2.311,-2.3138,-2.3121,-2.3237,-2.3201,-2.3206,-2.3209,-2.3245,-2.3257,-2.3268,-2.3127,-2.3126,-2.3125,0,0,-2.2888,-2.2904,-2.2952,-2.297,-2.2995,-2.2999,-2.3011,-2.3033,-2.3039,-2.3093,-2.3076,-2.311,-2.317,-2.3189,-2.3207,-2.3294,-2.3279,-2.3305,-2.335,-2.3387,-2.3397,-2.3405,-2.3436,-2.3448,-2.3312,-2.3312,-2.3312,0,-2.2926,-2.2982,-2.2978,-2.3021,-2.3041,-2.3022,-2.3071,-2.3088,-2.3123,-2.3138,-2.3118,-2.3193,-2.3209,-2.3276,-2.3297,-2.3312,-2.3325,-2.3301,-2.3395,-2.3404,-2.3413,-2.3442,-2.3454,-2.3315,-2.3314,-2.3314,-2.3314,0,-2.3027,-2.3067,-2.3102,-2.3137,-2.3161,-2.3206,-2.3209,-2.3234,-2.3229,-2.3235,-2.329,-2.3308,-2.3345,-2.336,-2.3355,-2.3427,-2.3415,-2.3396,-2.336,-2.3428,-2.3455,-2.3466,-2.3319,-2.3318,-2.3317,-2.3316,0,0,-2.3131,-2.3163,-2.3176,-2.3191,-2.3219,-2.3249,-2.3294,-2.333,-2.3351,-2.3376,-2.3414,-2.3466,-2.3448,-2.3468,-2.3465,-2.3497,-2.3564,-2.3473,-2.3473,-2.3489,-2.3645,-2.3659,-2.3672,-2.3555,-2.3557,-2.3559,-2.3642,0,-2.3211,-2.3289,-2.3287,-2.336,-2.3397,-2.3379,-2.3419,-2.344,-2.3447,-2.3479,-2.3487,-2.3524,-2.3497,-2.3509,-2.354,-2.3549,-2.3595,-2.3543,-2.359,-2.3592,-2.3584,-2.3686,-2.3702,-2.378,-2.3653,-2.3655,-2.3656,0,-2.3316,-2.3344,-2.3421,-2.3443,-2.3458,-2.3493,-2.3526,-2.3557,-2.3581,-2.3584,-2.3606,-2.3598,-2.3644,-2.3607,-2.3671,-2.3635,-2.3654,-2.3662,-2.3665,-2.3669,-2.3628,-2.3693,-2.3804,-2.3816,-2.3673,-2.3672,-2.3671,0,-2.3383,-2.3441,-2.3494,-2.3508,-2.3535,-2.356,-2.3573,-2.3595,-2.3616,-2.3645,-2.3659,-2.3693,-2.3711,-2.3738,-2.3739,-2.3712,-2.3803,-2.3766,-2.3807,-2.3807,-2.3826,-2.3825,-2.3942,-2.3839,-2.3839,-2.3839,-2.3838,0,-2.3473,-2.3521,-2.3525,-2.3558,-2.361,-2.3608,-2.366,-2.367,-2.369,-2.3725,-2.3712,-2.3745,-2.3744,-2.3778,-2.3779,-2.3832,-2.384,-2.3844,-2.3843,-2.3845,-2.3844,-2.3857,-2.3851,-2.3842,-2.3841,-2.384,-2.384,0,-2.3558,-2.3562,-2.3619,-2.364,-2.3647,-2.3685,-2.3703,-2.3734,-2.374,-2.3784,-2.3794,-2.3804,-2.3843,-2.3847,-2.3892,-2.3893,-2.3956,-2.395,-2.3948,-2.3947,-2.3987,-2.3983,-2.4116,-2.4133,-2.4019,-2.402,-2.4021,0,-2.3615,-2.3651,-2.3676,-2.3698,-2.3712,-2.3748,-2.377,-2.3769,-2.3792,-2.3822,-2.385,-2.3888,-2.3918,-2.3981,-2.3992,-2.4026,-2.4021,-2.4065,-2.4026,-2.4026,-2.4021,-2.4019,-2.4023,-2.4073,-2.4074,-2.4075,-2.4076,0,-2.3715,-2.3716,-2.3748,-2.3781,-2.3808,-2.3834,-2.3858,-2.3877,-2.388,-2.3907,-2.3946,-2.3969,-2.4016,-2.4053,-2.4087,-2.41,-2.4089,-2.4088,-2.4099,-2.4101,-2.4098,-2.41,-2.3968,-2.4085,-2.4084,-2.4083,-2.4083,-2.4082,-2.3788,-2.3819,-2.3842,-2.3878,-2.3896,-2.3919,-2.395,-2.396,-2.3992,-2.403,-2.4027,-2.4071,-2.4094,-2.4139,-2.4155,-2.4189,-2.4174,-2.419,-2.4194,-2.4198,-2.4202,-2.4093,-2.4195,-2.4195,-2.4195,-2.4194,-2.4194,0,-2.3888,-2.3901,-2.3935,-2.3969,-2.3998,-2.3984,-2.4011,-2.4036,-2.4074,-2.4097,-2.4127,-2.4172,-2.4209,-2.4223,-2.4258,-2.4283,-2.4279,-2.4292,-2.429,-2.4294,-2.4213,-2.42,-2.4295,-2.4295,-2.4295,-2.4295,-2.4295,-2.4295,-2.3943,-2.3995,-2.3999,-2.406,-2.4073,-2.4116,-2.4132,-2.4153,-2.4171,-2.4223,-2.4253,-2.4262,-2.4281,-2.4318,-2.4351,-2.4354,-2.4368,-2.4384,-2.4385,-2.431,-2.4299,-2.429,-2.4277,-2.4387,-2.4387,-2.4463,-2.4463,-2.4464]},{"header":{"parameterUnit":"m.s-1","parameterCategory":1,"la1":30.2991,"la2":30.254,"lo1":-89.0895,"lo2":-89.0444,"dy":0.0017,"dx":0.0017,"nx":28,"ny":28,"refTime":"2024-05-20T03:00:00:Z","depth":0,"parameterNumber":3,"parameterNumberName":"V-component_of_WINDS"},"data":[0,0,0,0,0,0,0,0,0,0,0,0,0,0,0,0,0,0,0,0,0,0,0,0,0,0,0,0,0,0,0,0,0,0,0,0,0,0,0,0,0,0,0,0,0,0,0,0,0,0,0,0,0,0,0,0,0,0,2.5043,2.5043,0,2.5055,2.5055,2.5056,2.5037,2.5036,2.5036,2.5035,2.5047,2.5047,2.5048,0,0,0,0,0,0,0,0,0,0,0,0,0,2.5004,2.5005,2.5043,2.5043,2.5044,2.5055,2.5055,2.5056,2.5037,2.5036,2.5035,2.5035,2.5046,2.5047,2.5048,0,0,0,0,0,0,0,0,0,0,0,0,0,2.5019,2.5005,2.5043,2.5036,2.5035,2.5055,2.5055,2.5056,2.5037,2.5036,2.5035,2.5034,2.5046,2.5047,2.5049,2.5076,0,0,2.5053,2.5053,0,0,0,0,0,0,0,0,2.5018,2.502,2.5037,2.5036,2.5036,2.5044,2.5046,2.5063,2.5037,2.5036,2.5035,2.5034,2.5046,2.5048,2.5052,2.5077,2.5077,2.5053,2.5054,2.5054,2.5055,0,0,0,0,0,0,0,2.5017,2.502,2.5048,2.5037,2.5036,2.5032,2.5033,2.5049,2.5047,2.5036,2.5035,2.5037,2.5046,2.5051,2.5052,2.5077,2.5053,2.5054,2.5055,2.5055,2.5126,2.5127,0,0,0,0,0,0,2.5017,2.5019,2.5048,2.5048,2.5024,2.5033,2.5034,2.5042,2.5046,2.5046,2.5038,2.5036,2.5049,2.505,2.5052,2.5085,2.5054,2.5055,2.5056,2.5125,2.5126,2.5127,0,0,0,0,0,0,2.5016,2.502,2.5047,2.5033,2.5037,2.5035,2.5044,2.5043,2.5048,2.5047,2.5047,2.5043,2.5048,2.505,2.5071,2.5085,2.5056,2.5057,2.5124,2.5125,2.5127,2.5151,0,0,0,0,0,0,2.5015,2.502,2.503,2.5034,2.5037,2.5065,2.5045,2.5044,2.505,2.5048,2.5052,2.5052,2.5048,2.5069,2.5072,2.5087,2.5058,2.5122,2.5125,2.5126,2.5149,2.5154,2.5157,0,0,0,0,0,2.5014,2.5036,2.5031,2.5034,2.5051,2.5066,2.5068,2.5063,2.5051,2.5062,2.5062,2.5052,2.5083,2.5071,2.5074,2.509,2.5121,2.5124,2.5126,2.5147,2.5153,2.5157,0,0,0,0,0,0,2.5034,2.5037,2.5031,2.5055,2.5061,2.5063,2.5076,2.5069,2.5078,2.5075,2.5068,2.5069,2.5091,2.5092,2.5078,2.5117,2.51,2.5104,2.5115,2.512,2.5124,2.5124,2.5059,0,0,0,0,0,2.5041,2.5054,2.5056,2.5077,2.508,2.5078,2.5084,2.508,2.5085,2.5088,2.5089,2.5095,2.5106,2.5113,2.5123,2.515,2.515,2.5162,2.5166,2.5169,2.5172,2.5186,2.5192,2.5135,2.5135,2.5135,0,0,2.5056,2.5059,2.5068,2.5081,2.5085,2.5098,2.508,2.5095,2.5104,2.509,2.5109,2.511,2.5116,2.5139,2.515,2.5141,2.5188,2.5172,2.5175,2.5176,2.5189,2.5195,2.52,2.5137,2.5137,2.5136,0,0,2.5091,2.5094,2.5113,2.5117,2.5124,2.5122,2.5126,2.513,2.5131,2.515,2.514,2.5151,2.517,2.5175,2.518,2.5217,2.5208,2.522,2.5242,2.5256,2.526,2.5264,2.5277,2.5282,2.5223,2.5223,2.5223,0,2.5109,2.5129,2.5123,2.5139,2.5145,2.5133,2.5151,2.5156,2.5165,2.517,2.516,2.5185,2.5188,2.5212,2.5221,2.5226,2.5231,2.522,2.526,2.5264,2.5267,2.528,2.5285,2.5225,2.5225,2.5225,2.5224,0,2.5151,2.5164,2.5179,2.5188,2.5196,2.5213,2.521,2.5219,2.5214,2.5213,2.5233,2.5236,2.5247,2.5253,2.5248,2.5277,2.5271,2.5261,2.5244,2.5274,2.5286,2.5291,2.5227,2.5226,2.5226,2.5226,0,0,2.5197,2.5205,2.521,2.5214,2.5221,2.5231,2.5248,2.5259,2.5267,2.5273,2.5287,2.5304,2.5295,2.5301,2.5296,2.5309,2.5338,2.5297,2.5297,2.5304,2.537,2.5378,2.5384,2.5332,2.5333,2.5334,2.537,0,2.5232,2.5261,2.5257,2.5285,2.5298,2.5287,2.5301,2.5307,2.5307,2.5318,2.5317,2.533,2.5317,2.532,2.5332,2.5332,2.5351,2.5329,2.5345,2.5346,2.5344,2.539,2.5398,2.5432,2.5374,2.5375,2.5376,0,2.5276,2.5285,2.5315,2.5319,2.5325,2.5338,2.5348,2.5358,2.5365,2.5364,2.5371,2.5364,2.5381,2.5364,2.5386,2.5372,2.5378,2.5379,2.538,2.5381,2.5362,2.5392,2.5442,2.5447,2.5383,2.5382,2.5382,0,2.5308,2.5327,2.5347,2.5352,2.5358,2.5367,2.537,2.5375,2.5383,2.5391,2.5396,2.5406,2.5412,2.542,2.5417,2.5405,2.5441,2.5423,2.544,2.544,2.5448,2.5448,2.55,2.5452,2.5452,2.5452,2.5452,0,2.5347,2.5365,2.5362,2.5374,2.5395,2.539,2.541,2.5411,2.5416,2.5429,2.542,2.5432,2.5426,2.5438,2.5435,2.5455,2.5457,2.5457,2.5456,2.5458,2.5458,2.5462,2.5459,2.5453,2.5453,2.5453,2.5453,0,2.5385,2.5384,2.5405,2.541,2.5411,2.5426,2.5429,2.5441,2.5441,2.5457,2.546,2.5459,2.5473,2.547,2.5484,2.5483,2.5507,2.5503,2.5505,2.5504,2.5522,2.552,2.5578,2.5585,2.5533,2.5534,2.5534,0,2.541,2.5424,2.543,2.5438,2.5442,2.5455,2.5462,2.5458,2.5466,2.5474,2.5485,2.5498,2.5507,2.5529,2.5529,2.5541,2.5537,2.5557,2.5538,2.554,2.5537,2.5537,2.5538,2.556,2.5561,2.5561,2.5561,0,2.5455,2.5454,2.5465,2.5476,2.5485,2.5493,2.5501,2.5508,2.5504,2.5514,2.5527,2.5535,2.555,2.5563,2.5573,2.5576,2.5568,2.5567,2.5572,2.5574,2.5574,2.5574,2.5515,2.5566,2.5565,2.5565,2.5565,2.5565,2.5488,2.55,2.5506,2.5519,2.5524,2.5531,2.5543,2.5544,2.5555,2.5567,2.5564,2.558,2.5586,2.5599,2.5603,2.5615,2.5608,2.5614,2.5616,2.5618,2.562,2.5573,2.5617,2.5617,2.5617,2.5617,2.5617,0,2.5532,2.5535,2.5547,2.5558,2.5569,2.5561,2.5569,2.5578,2.5592,2.5598,2.5608,2.5624,2.5636,2.5638,2.565,2.5659,2.5656,2.5662,2.5661,2.5662,2.5626,2.5621,2.5665,2.5665,2.5665,2.5664,2.5664,2.5664,2.5556,2.5576,2.5576,2.5599,2.5602,2.5617,2.5623,2.5629,2.5635,2.5653,2.5663,2.5664,2.5669,2.5681,2.5692,2.5692,2.5697,2.5705,2.5704,2.5669,2.5665,2.566,2.5655,2.5706,2.5706,2.5739,2.5739,2.5739]}]]